Regional Weather Roundup
Issued by NWS Cleveland, OH

Home | Current Version | Previous Version | Graphics & Text | Print | Product List | Glossary On
Versions: 1 2 3 4 5 6 7 8 9 10 11 12 13 14 15 16 17 18 19 20 21 22 23 24 25 26 27 28 29 30 31 32 33 34 35 36 37 38 39 40 41 42 43 44 45 46 47 48 49 50
000
ASUS41 KCLE 261200
RWRCLE
OHIO REGIONAL WEATHER ROUNDUP
NATIONAL WEATHER SERVICE WILMINGTON, OH
700 AM EST WED NOV 26 2014

NOTE: "FAIR" INDICATES FEW OR NO CLOUDS BELOW 12,000 FEET WITH NO
SIGNIFICANT WEATHER AND/OR OBSTRUCTIONS TO VISIBILITY.

OHZ001>008-015>018-024>027-034-035-043-044-261300-
   NORTHWEST OHIO

CITY           SKY/WX    TMP DP  RH WIND       PRES   REMARKS
DEFIANCE       NOT AVBL
FINDLAY        CLOUDY    29  20  69 NE8       30.14S WCI  21
TOLEDO EXPRESS CLOUDY    27  20  75 N3        30.16F
TOLEDO METCALF CLOUDY    29  21  72 CALM      30.18R
LIMA           CLOUDY    29  21  72 E7        30.13S WCI  22
$$

OHZ009>014-019>023-028>033-038-089-261300-
   NORTHEAST OHIO

CITY           SKY/WX    TMP DP  RH WIND       PRES   REMARKS
CLE-HOPKINS    CLOUDY    32  24  72 E7        30.15F WCI  26
CLE-LAKEFRONT  CLOUDY    34  25  69 E7        30.13F WCI  28
CUY CO. ARPT   MOCLDY    34  28  80 E7        30.17  WCI  28
LORAIN-ELYRIA  CLOUDY    31  25  78 CALM      30.14F
ASHTABULA      CLOUDY    32  26  78 CALM      30.14F
AKRON-CANTON   CLOUDY    31  24  75 NE8       30.11R WCI  23
WOOSTER        NOT AVBL
MANSFIELD      CLOUDY    28  23  81 NE5       30.11R WCI  23
YOUNGSTOWN     CLOUDY    31  24  75 N7        30.09F WCI  24
$$

OHZ042-051>053-060>062-070>072-077>081-261300-
  SOUTHWEST OHIO

CITY           SKY/WX    TMP DP  RH WIND       PRES   REMARKS
CINC-COVINGTON CLEAR     27  22  81 N9        30.09F WCI  18
CINC-LUNKEN    CLEAR     27  23  85 N7        30.13F WCI  19
HAMILTON       CLOUDY    30  26  85 N7        30.13F WCI  23
DAYTON         NOT AVBL
WRIGHT-PAT AFB NOT AVBL
DAYTON GENERAL CLOUDY    29  25  85 N7        30.09F WCI  22
WILMINGTON     MOCLDY    26  22  84 N9        30.09S WCI  17
$$

OHZ036-037-039>041-045>050-054>059-063>069-073>076-082>088-261300-
  CENTRAL AND SOUTHEAST OHIO

CITY           SKY/WX    TMP DP  RH WIND       PRES   REMARKS
COLUMBUS       CLOUDY    29  24  82 N6        30.11R WCI  23
OSU AIRPORT    MOCLDY    28  24  85 N8        30.11R WCI  20
BOLTON FIELD   NOT AVBL
RICKENBACK AFB NOT AVBL
NEWARK         CLOUDY    31  25  78 N6        30.09S WCI  25
MARION         CLOUDY    29  22  75 N8        30.12S WCI  21
LANCASTER      CLOUDY    31  26  82 N5        30.09R WCI  26
ZANESVILLE     CLOUDY    30  26  85 N6        30.08R WCI  24
NEW PHILLY     CLOUDY    32  26  78 CALM      30.10S
$$


USA.gov is the U.S. government's official web portal to all federal, state and local government web resources and services.